Pagosa Springs, CO

7:02 PM MDT on April 26, 2018 (GMT -0600)
Pagosa Springs

Weather History for KPSO - May, 2013

Change the Weather History Date:

Tuesday, May 7, 2013

  Actual Average (KE33) Record (KE33)
Temperature  
Mean Temperature 47 °F -  
Max Temperature 60 °F 60 °F 73 °F (2004)
Min Temperature 34 °F 36 °F 28 °F (1999)
Degree Days  
Heating Degree Days 18    
Moisture  
Dew Point 30 °F    
Average Humidity 59    
Maximum Humidity 99    
Minimum Humidity 13    
Precipitation  
Precipitation 0.00 in - - ()
Sea Level Pressure  
Sea Level Pressure 30.11 in    
Wind  
Wind Speed 3 mph (SW)    
Max Wind Speed 15 mph    
Max Gust Speed 23 mph    
Visibility 10 miles    
Events Rain , Thunderstorm    
Averages and records for this station are not official NWS values.
T = Trace of Precipitation, MM = Missing Value Source: NWS Daily Summary

Daily Weather History Graph

Daily Weather History Graph

Search for Another Location

Airport or City:

Astronomy

May. 07, 2013 Rise Set
Actual Time 6:06 AM MDT 8:03 PM MDT
Civil Twilight 5:38 AM MDT 8:32 PM MDT
Nautical Twilight 5:03 AM MDT 9:06 PM MDT
Astronomical Twilight 4:26 AM MDT 9:44 PM MDT
Moon 4:39 AM MDT (5/7) 6:08 PM MDT (5/7)
Length of Visible Light 14h 53m
Length of Day
13h 56m
Waning Crescent, 5% of the Moon is Illuminated
May 7
Waning Crescent
May 9
New
May 17
First Quarter
May 24
Full
May 31
Last Quarter

Hourly Weather History & Observations

Time (MDT) Temp. Windchill Dew Point Humidity Pressure Visibility Wind Dir Wind Speed Gust Speed Precip Events Conditions
12:15 AM 41.2 °F - 38.3 °F 89% 30.17 in 10.0 mi Calm Calm - N/A   Mostly Cloudy
12:35 AM 40.3 °F 38.2 °F 38.5 °F 93% 30.16 in 10.0 mi ESE 3.5 mph - N/A   Scattered Clouds
12:55 AM 39.6 °F - 38.7 °F 97% 30.17 in 10.0 mi Calm Calm - N/A   Mostly Cloudy
1:15 AM 40.3 °F 34.9 °F 39.2 °F 96% 30.19 in 5.0 mi SSW 8.1 mph - N/A Rain Rain
1:35 AM 40.3 °F 34.9 °F 39.4 °F 97% 30.17 in 2.5 mi SSW 8.1 mph - N/A Rain Rain
2:15 AM 39.9 °F - 38.3 °F 94% 30.17 in 10.0 mi Calm Calm - N/A Rain Light Rain
2:35 AM 39.6 °F 37.4 °F 38.5 °F 96% 30.17 in 10.0 mi ESE 3.5 mph - N/A   Overcast
2:55 AM 39.2 °F - 38.3 °F 97% 30.16 in 7.0 mi Calm Calm - N/A   Mostly Cloudy
3:15 AM 38.5 °F - 37.9 °F 98% 30.16 in 7.0 mi Calm Calm - N/A   Scattered Clouds
3:35 AM 36.7 °F - 36.1 °F 98% 30.16 in 2.5 mi Calm Calm - N/A   Scattered Clouds
3:55 AM 36.7 °F - 36.5 °F 99% 30.16 in 5.0 mi Calm Calm - N/A   Mostly Cloudy
4:15 AM 36.5 °F - 36.0 °F 98% 30.16 in 5.0 mi Calm Calm - N/A   Mostly Cloudy
4:35 AM 37.0 °F - 36.7 °F 99% 30.15 in 10.0 mi Calm Calm - N/A   Scattered Clouds
4:55 AM 36.7 °F - 36.5 °F 99% 30.15 in 10.0 mi Calm Calm - N/A   Clear
5:15 AM 36.0 °F - 35.6 °F 99% 30.14 in 10.0 mi Calm Calm - N/A   Clear
5:35 AM 34.0 °F - 33.6 °F 99% 30.15 in 7.0 mi Calm Calm - N/A   Clear
5:55 AM 35.8 °F - 35.6 °F 99% 30.15 in 10.0 mi Calm Calm - N/A   Scattered Clouds
6:15 AM 35.8 °F - 35.6 °F 99% 30.15 in 10.0 mi Calm Calm - N/A   Clear
6:35 AM 34.5 °F - 34.0 °F 98% 30.15 in 10.0 mi Calm Calm - N/A   Clear
6:55 AM 35.8 °F - 35.6 °F 99% 30.16 in 10.0 mi Calm Calm - N/A   Clear
7:15 AM 36.9 °F - 36.5 °F 99% 30.16 in 10.0 mi Calm Calm - N/A   Clear
7:35 AM 38.5 °F - 37.6 °F 97% 30.16 in 10.0 mi Calm Calm - N/A   Clear
7:55 AM 41.4 °F - 39.4 °F 93% 30.16 in 10.0 mi Calm Calm - N/A   Clear
8:15 AM 42.3 °F - 39.7 °F 91% 30.16 in 10.0 mi Calm Calm - N/A   Clear
8:35 AM 43.9 °F - 41.0 °F 90% 30.16 in 10.0 mi Calm Calm - N/A   Clear
8:55 AM 45.5 °F - 40.3 °F 82% 30.16 in 10.0 mi Calm Calm - N/A   Clear
9:15 AM 47.3 °F - 40.1 °F 76% 30.16 in 10.0 mi Calm Calm - N/A   Clear
9:35 AM 47.7 °F - 38.8 °F 71% 30.15 in 10.0 mi Calm Calm - N/A   Clear
9:55 AM 47.5 °F - 37.9 °F 69% 30.15 in 10.0 mi Calm Calm - N/A   Clear
10:15 AM 50.2 °F - 36.0 °F 58% 30.15 in 10.0 mi Calm Calm - N/A   Scattered Clouds
10:35 AM 50.7 °F - 35.2 °F 55% 30.15 in 10.0 mi Calm Calm - N/A   Mostly Cloudy
10:55 AM 51.1 °F - 32.4 °F 49% 30.14 in 10.0 mi South 9.2 mph - N/A   Mostly Cloudy
11:15 AM 52.7 °F - 29.8 °F 42% 30.14 in 10.0 mi SSW 9.2 mph - N/A   Mostly Cloudy
11:35 AM 54.7 °F - 27.9 °F 36% 30.14 in 10.0 mi SW 11.5 mph - N/A   Scattered Clouds
11:55 AM 54.0 °F - 29.1 °F 39% 30.13 in 10.0 mi South 6.9 mph 20.7 mph N/A   Scattered Clouds
12:15 PM 53.4 °F - 28.9 °F 39% 30.13 in 10.0 mi SSW 6.9 mph - N/A   Mostly Cloudy
12:35 PM 53.1 °F - 31.6 °F 44% 30.12 in 10.0 mi WSW 6.9 mph - N/A Rain Light Rain
12:55 PM 55.0 °F - 30.7 °F 40% 30.11 in 10.0 mi West 4.6 mph - N/A   Scattered Clouds
1:15 PM 55.9 °F - 24.4 °F 30% 30.10 in 10.0 mi South 4.6 mph - N/A   Scattered Clouds
1:35 PM 57.0 °F - 24.8 °F 29% 30.10 in 10.0 mi SW 8.1 mph 16.1 mph N/A   Scattered Clouds
1:55 PM 57.2 °F - 24.3 °F 28% 30.09 in 10.0 mi WSW 8.1 mph - N/A   Scattered Clouds
2:15 PM 59.5 °F - 21.9 °F 23% 30.08 in 10.0 mi SSE 5.8 mph 23.0 mph N/A   Mostly Cloudy
2:35 PM 58.1 °F - 21.7 °F 25% 30.08 in 10.0 mi South 9.2 mph - N/A   Mostly Cloudy
2:55 PM 58.3 °F - 23.2 °F 26% 30.07 in 10.0 mi West 6.9 mph - N/A   Overcast
3:15 PM 59.2 °F - 21.6 °F 23% 30.07 in 10.0 mi SW 12.7 mph 17.3 mph N/A   Overcast
3:35 PM 60.4 °F - 19.0 °F 20% 30.05 in 10.0 mi SSW 9.2 mph 16.1 mph N/A   Scattered Clouds
3:55 PM 59.9 °F - 19.2 °F 21% 30.05 in 10.0 mi SW 12.7 mph 19.6 mph N/A   Mostly Cloudy
4:15 PM 60.6 °F - 16.9 °F 18% 30.05 in 10.0 mi WSW 15.0 mph 18.4 mph N/A   Scattered Clouds
4:35 PM 60.1 °F - 13.5 °F 16% 30.04 in 10.0 mi SW 10.4 mph 20.7 mph N/A   Scattered Clouds
4:55 PM 59.9 °F - 13.1 °F 16% 30.04 in 10.0 mi SW 12.7 mph 20.7 mph N/A   Overcast
5:15 PM 60.6 °F - 9.7 °F 13% 30.04 in 10.0 mi WSW 12.7 mph 20.7 mph N/A   Mostly Cloudy
5:35 PM 60.3 °F - 11.1 °F 14% 30.04 in 10.0 mi WSW 10.4 mph 16.1 mph N/A   Clear
5:55 PM 59.7 °F - 18.3 °F 20% 30.04 in 10.0 mi WNW 12.7 mph 20.7 mph N/A Thunderstorm Clear
6:15 PM 56.8 °F - 24.4 °F 29% 30.04 in 10.0 mi NW 5.8 mph - N/A   Clear
6:35 PM 55.4 °F - 25.3 °F 31% 30.03 in 10.0 mi NNW 8.1 mph - N/A   Clear
6:55 PM 54.7 °F - 24.6 °F 31% 30.03 in 10.0 mi NW 5.8 mph - N/A   Clear
7:15 PM 54.0 °F - 25.3 °F 33% 30.03 in 10.0 mi NW 3.5 mph - N/A   Clear
7:35 PM 53.1 °F - 25.9 °F 35% 30.03 in 10.0 mi NNW 3.5 mph - N/A   Clear
7:55 PM 52.0 °F - 27.5 °F 39% 30.02 in 10.0 mi Calm Calm - N/A Thunderstorm Thunderstorm
8:15 PM 50.4 °F - 27.9 °F 42% 30.03 in 10.0 mi Calm Calm - N/A   Clear
8:35 PM 48.9 °F - 28.6 °F 45% 30.04 in 10.0 mi Calm Calm - N/A   Clear
8:55 PM 45.0 °F - 30.7 °F 57% 30.04 in 10.0 mi Calm Calm - N/A   Scattered Clouds
9:15 PM 45.7 °F 43.4 °F 31.1 °F 57% 30.05 in 10.0 mi South 4.6 mph - N/A   Mostly Cloudy
9:35 PM 51.4 °F - 21.9 °F 32% 30.07 in 10.0 mi SSE 6.9 mph - N/A   Overcast
9:55 PM 49.6 °F - 26.6 °F 41% 30.07 in 10.0 mi NE 5.8 mph - N/A   Overcast
10:15 PM 47.1 °F - 25.3 °F 43% 30.07 in 10.0 mi Calm Calm - N/A   Scattered Clouds
10:35 PM 45.7 °F - 26.1 °F 46% 30.07 in 10.0 mi Calm Calm - N/A   Scattered Clouds
10:55 PM 45.0 °F 43.5 °F 25.5 °F 47% 30.07 in 10.0 mi NE 3.5 mph - N/A   Scattered Clouds
11:15 PM 43.0 °F 41.3 °F 27.5 °F 54% 30.07 in 10.0 mi West 3.5 mph - N/A   Clear
11:35 PM 43.5 °F 40.1 °F 30.2 °F 59% 30.08 in 10.0 mi WSW 5.8 mph - N/A   Clear
11:55 PM 47.3 °F - 27.7 °F 47% 30.09 in 10.0 mi WSW 5.8 mph - N/A   Clear